GFSFLT1_prec_precacc24_072.txt.gz
Total_Precipitation_Accumulation
0.00 0.00 0.00 0.02 0.15 0.19 0.23 0.26 0.24 0.19 0.13 0.15 0.14 0.16 0.25 0.25 0.16 0.08 0.08 0.07 0.03 0.02 0.05 0.11 0.17 0.09 0.04 0.02 0.04 0.02 0.01 0.00
0.00 0.00 0.00 0.02 0.06 0.11 0.10 0.15 0.28 0.22 0.12 0.09 0.08 0.10 0.11 0.14 0.09 0.04 0.05 0.08 0.07 0.05 0.08 0.10 0.19 0.12 0.06 0.03 0.03 0.03 0.02 0.01
0.00 0.00 0.00 0.01 0.02 0.02 0.01 0.01 0.09 0.19 0.11 0.05 0.02 0.04 0.03 0.04 0.03 0.03 0.03 0.06 0.07 0.07 0.07 0.06 0.08 0.11 0.05 0.02 0.03 0.04 0.02 0.02
0.00 0.00 0.00 0.00 0.01 0.01 0.01 0.00 0.01 0.04 0.06 0.08 0.03 0.02 0.06 0.04 0.02 0.01 0.02 0.02 0.05 0.10 0.10 0.07 0.09 0.15 0.07 0.06 0.03 0.04 0.20 0.08
0.00 0.00 0.00 0.00 0.00 0.00 0.01 0.00 0.00 0.01 0.02 0.04 0.03 0.01 0.03 0.01 0.01 0.00 0.01 0.03 0.06 0.11 0.17 0.17 0.14 0.19 0.15 0.12 0.09 0.08 0.49 0.32
0.00 0.00 0.00 0.00 0.00 0.00 0.01 0.01 0.00 0.00 0.01 0.03 0.05 0.04 0.01 0.01 0.01 0.01 0.01 0.07 0.11 0.13 0.21 0.27 0.22 0.21 0.29 0.39 0.32 0.28 0.43 0.30
0.00 0.00 0.00 0.00 0.00 0.00 0.01 0.01 0.00 0.00 0.00 0.02 0.02 0.10 0.05 0.01 0.03 0.08 0.13 0.24 0.25 0.26 0.27 0.24 0.29 0.30 0.32 0.38 0.41 0.52 0.52 0.49
0.00 0.00 0.00 0.00 0.00 0.00 0.00 0.00 0.00 0.00 0.01 0.01 0.00 0.03 0.09 0.06 0.01 0.05 0.14 0.12 0.26 0.18 0.16 0.16 0.17 0.22 0.24 0.22 0.26 0.21 0.25 0.31
0.00 0.00 0.00 0.00 0.00 0.00 0.00 0.00 0.00 0.00 0.00 0.01 0.02 0.01 0.01 0.01 0.02 0.01 0.05 0.04 0.07 0.08 0.04 0.04 0.06 0.11 0.15 0.15 0.13 0.10 0.12 0.16
0.01 0.00 0.00 0.01 0.00 0.00 0.00 0.00 0.00 0.00 0.00 0.01 0.01 0.02 0.00 0.02 0.07 0.09 0.07 0.05 0.09 0.11 0.10 0.08 0.07 0.09 0.09 0.10 0.09 0.11 0.11 0.13
0.00 0.00 0.01 0.01 0.01 0.03 0.02 0.02 0.01 0.02 0.01 0.02 0.01 0.06 0.09 0.01 0.03 0.08 0.16 0.24 0.23 0.34 0.24 0.17 0.13 0.10 0.10 0.10 0.07 0.07 0.10 0.08
0.00 0.00 0.01 0.01 0.02 0.06 0.11 0.19 0.29 0.20 0.14 0.04 0.04 0.12 0.33 0.23 0.08 0.11 0.19 0.36 0.44 0.55 0.40 0.24 0.18 0.19 0.16 0.12 0.12 0.14 0.14 0.15
0.00 0.00 0.00 0.00 0.02 0.08 0.16 0.26 0.34 0.25 0.19 0.13 0.32 0.50 0.74 0.60 0.46 0.60 0.42 0.26 0.15 0.16 0.19 0.16 0.13 0.18 0.22 0.18 0.15 0.13 0.15 0.18
0.00 0.00 0.00 0.00 0.00 0.02 0.07 0.09 0.14 0.25 0.33 0.35 0.42 0.31 0.51 0.67 0.49 0.37 0.28 0.22 0.19 0.14 0.12 0.14 0.13 0.15 0.16 0.17 0.17 0.19 0.22 0.28
0.00 0.00 0.00 0.00 0.00 0.00 0.03 0.12 0.14 0.18 0.15 0.11 0.13 0.17 0.15 0.26 0.28 0.26 0.16 0.18 0.12 0.10 0.09 0.08 0.08 0.07 0.07 0.10 0.14 0.13 0.11 0.12
0.00 0.00 0.00 0.00 0.00 0.00 0.01 0.01 0.04 0.08 0.05 0.04 0.09 0.09 0.13 0.16 0.18 0.16 0.16 0.16 0.16 0.16 0.12 0.09 0.06 0.04 0.07 0.05 0.05 0.04 0.04 0.04
0.00 0.00 0.00 0.00 0.00 0.00 0.00 0.03 0.07 0.06 0.07 0.06 0.10 0.10 0.13 0.19 0.17 0.12 0.11 0.17 0.21 0.18 0.15 0.19 0.19 0.13 0.17 0.14 0.11 0.06 0.06 0.06
0.00 0.00 0.00 0.01 0.01 0.02 0.02 0.04 0.02 0.02 0.03 0.04 0.06 0.07 0.12 0.12 0.15 0.13 0.15 0.21 0.26 0.21 0.20 0.17 0.15 0.11 0.16 0.14 0.14 0.08 0.08 0.07
0.00 0.00 0.01 0.01 0.01 0.00 0.00 0.02 0.01 0.01 0.02 0.04 0.04 0.05 0.08 0.09 0.14 0.10 0.11 0.15 0.15 0.15 0.16 0.16 0.13 0.13 0.20 0.18 0.19 0.07 0.06 0.07

GFSFLT1_prec_precacc24_075.txt.gz
Total_Precipitation_Accumulation
0.00 0.00 0.00 0.02 0.15 0.19 0.23 0.26 0.24 0.19 0.13 0.17 0.21 0.23 0.38 0.32 0.21 0.10 0.09 0.06 0.02 0.02 0.06 0.16 0.16 0.13 0.08 0.02 0.04 0.02 0.01 0.00
0.00 0.00 0.00 0.02 0.06 0.11 0.10 0.15 0.28 0.22 0.12 0.10 0.10 0.13 0.17 0.20 0.13 0.06 0.04 0.07 0.07 0.06 0.07 0.12 0.19 0.24 0.12 0.04 0.03 0.03 0.02 0.01
0.00 0.00 0.00 0.01 0.02 0.02 0.01 0.01 0.09 0.19 0.11 0.05 0.02 0.04 0.04 0.04 0.04 0.03 0.02 0.02 0.04 0.04 0.05 0.05 0.04 0.12 0.09 0.03 0.03 0.04 0.02 0.02
0.00 0.00 0.00 0.00 0.01 0.01 0.01 0.00 0.01 0.04 0.06 0.07 0.02 0.02 0.06 0.05 0.02 0.01 0.01 0.01 0.02 0.04 0.06 0.06 0.04 0.05 0.08 0.06 0.03 0.04 0.20 0.08
0.00 0.00 0.00 0.00 0.00 0.00 0.01 0.00 0.00 0.01 0.02 0.03 0.02 0.01 0.04 0.02 0.01 0.00 0.01 0.02 0.03 0.03 0.07 0.12 0.13 0.08 0.11 0.10 0.08 0.07 0.49 0.33
0.00 0.00 0.00 0.00 0.00 0.00 0.01 0.01 0.00 0.00 0.02 0.02 0.01 0.01 0.00 0.01 0.01 0.00 0.01 0.01 0.02 0.05 0.09 0.11 0.14 0.15 0.21 0.35 0.32 0.28 0.47 0.32
0.00 0.00 0.00 0.00 0.00 0.00 0.01 0.01 0.00 0.00 0.00 0.02 0.01 0.00 0.00 0.00 0.01 0.00 0.00 0.01 0.04 0.03 0.06 0.09 0.15 0.18 0.26 0.38 0.42 0.54 0.60 0.52
0.00 0.00 0.00 0.00 0.00 0.00 0.00 0.00 0.00 0.00 0.00 0.00 0.00 0.00 0.00 0.00 0.00 0.00 0.00 0.00 0.01 0.02 0.03 0.08 0.10 0.18 0.23 0.22 0.27 0.25 0.32 0.34
0.00 0.00 0.00 0.00 0.00 0.00 0.00 0.00 0.00 0.00 0.00 0.01 0.00 0.00 0.00 0.00 0.00 0.00 0.00 0.01 0.02 0.05 0.02 0.02 0.04 0.09 0.15 0.15 0.14 0.09 0.13 0.18
0.00 0.00 0.00 0.01 0.00 0.00 0.00 0.00 0.00 0.00 0.00 0.01 0.01 0.01 0.00 0.00 0.03 0.03 0.03 0.04 0.07 0.05 0.05 0.05 0.05 0.09 0.09 0.10 0.08 0.10 0.10 0.10
0.00 0.00 0.01 0.01 0.01 0.03 0.02 0.01 0.00 0.01 0.01 0.02 0.01 0.04 0.05 0.01 0.03 0.07 0.15 0.23 0.21 0.28 0.19 0.16 0.12 0.09 0.10 0.10 0.06 0.07 0.09 0.07
0.00 0.00 0.00 0.00 0.01 0.03 0.07 0.12 0.15 0.14 0.08 0.03 0.03 0.09 0.15 0.17 0.08 0.11 0.19 0.34 0.42 0.54 0.38 0.23 0.17 0.18 0.16 0.12 0.12 0.14 0.13 0.14
0.00 0.00 0.00 0.00 0.00 0.01 0.02 0.07 0.09 0.17 0.11 0.06 0.07 0.23 0.37 0.39 0.38 0.59 0.37 0.20 0.13 0.16 0.18 0.16 0.13 0.18 0.21 0.18 0.14 0.13 0.13 0.15
0.00 0.00 0.00 0.00 0.00 0.00 0.00 0.01 0.02 0.05 0.11 0.11 0.10 0.16 0.43 0.58 0.34 0.27 0.23 0.18 0.17 0.13 0.12 0.14 0.13 0.15 0.16 0.16 0.15 0.16 0.18 0.24
0.00 0.01 0.00 0.00 0.00 0.00 0.00 0.00 0.01 0.01 0.03 0.05 0.07 0.09 0.13 0.25 0.23 0.20 0.14 0.16 0.11 0.10 0.08 0.07 0.08 0.07 0.06 0.10 0.12 0.12 0.10 0.11
0.00 0.01 0.02 0.01 0.01 0.01 0.01 0.01 0.02 0.03 0.04 0.04 0.08 0.07 0.11 0.12 0.16 0.13 0.14 0.14 0.15 0.15 0.11 0.09 0.06 0.04 0.07 0.05 0.04 0.04 0.04 0.04
0.00 0.00 0.00 0.00 0.02 0.06 0.05 0.02 0.03 0.04 0.06 0.05 0.08 0.09 0.12 0.16 0.14 0.09 0.09 0.16 0.21 0.18 0.15 0.19 0.18 0.13 0.17 0.14 0.11 0.06 0.06 0.06
0.00 0.00 0.00 0.00 0.00 0.00 0.01 0.06 0.09 0.07 0.05 0.04 0.06 0.07 0.09 0.11 0.14 0.13 0.15 0.21 0.26 0.21 0.20 0.17 0.15 0.11 0.16 0.14 0.14 0.08 0.08 0.07
0.00 0.00 0.00 0.00 0.00 0.00 0.00 0.01 0.04 0.05 0.06 0.07 0.07 0.07 0.09 0.10 0.14 0.10 0.11 0.15 0.15 0.15 0.16 0.16 0.13 0.13 0.20 0.18 0.19 0.07 0.06 0.07

GFSFLT1_prec_precacc24_078.txt.gz
Total_Precipitation_Accumulation
0.00 0.00 0.00 0.02 0.15 0.18 0.22 0.25 0.23 0.18 0.14 0.19 0.25 0.30 0.47 0.38 0.22 0.11 0.09 0.06 0.02 0.02 0.06 0.12 0.10 0.09 0.08 0.02 0.04 0.02 0.01 0.00
0.00 0.00 0.00 0.01 0.06 0.11 0.10 0.15 0.28 0.22 0.12 0.12 0.17 0.19 0.25 0.34 0.15 0.07 0.05 0.07 0.07 0.06 0.04 0.07 0.10 0.17 0.10 0.04 0.03 0.03 0.02 0.01
0.00 0.00 0.00 0.01 0.02 0.02 0.01 0.01 0.09 0.19 0.11 0.06 0.04 0.07 0.11 0.15 0.09 0.05 0.04 0.03 0.04 0.04 0.05 0.03 0.03 0.10 0.10 0.03 0.03 0.04 0.02 0.02
0.00 0.00 0.00 0.00 0.01 0.01 0.01 0.00 0.01 0.04 0.06 0.07 0.03 0.04 0.11 0.23 0.17 0.10 0.04 0.02 0.02 0.04 0.06 0.05 0.04 0.04 0.07 0.06 0.02 0.02 0.20 0.08
0.00 0.00 0.00 0.00 0.00 0.00 0.01 0.01 0.00 0.01 0.02 0.03 0.02 0.03 0.06 0.07 0.05 0.04 0.03 0.02 0.01 0.00 0.01 0.01 0.03 0.03 0.06 0.09 0.06 0.04 0.48 0.32
0.00 0.00 0.00 0.00 0.00 0.00 0.01 0.01 0.00 0.00 0.02 0.02 0.01 0.01 0.00 0.02 0.01 0.01 0.02 0.01 0.01 0.01 0.03 0.02 0.01 0.06 0.10 0.26 0.28 0.25 0.45 0.31
0.00 0.00 0.00 0.00 0.00 0.00 0.01 0.01 0.00 0.00 0.01 0.02 0.01 0.00 0.00 0.00 0.01 0.00 0.00 0.00 0.01 0.01 0.02 0.03 0.06 0.09 0.13 0.22 0.33 0.49 0.59 0.53
0.00 0.00 0.00 0.00 0.00 0.00 0.00 0.00 0.01 0.00 0.00 0.00 0.00 0.00 0.00 0.00 0.00 0.00 0.00 0.00 0.00 0.00 0.00 0.01 0.02 0.09 0.14 0.15 0.23 0.23 0.32 0.33
0.00 0.00 0.00 0.00 0.00 0.00 0.00 0.00 0.00 0.01 0.00 0.00 0.00 0.00 0.00 0.00 0.00 0.00 0.00 0.00 0.00 0.01 0.01 0.01 0.03 0.05 0.10 0.13 0.15 0.11 0.14 0.17
0.00 0.00 0.00 0.01 0.00 0.00 0.00 0.00 0.00 0.00 0.01 0.01 0.00 0.00 0.00 0.00 0.03 0.00 0.02 0.03 0.02 0.02 0.01 0.03 0.06 0.07 0.08 0.10 0.09 0.11 0.11 0.11
0.00 0.00 0.01 0.01 0.01 0.02 0.01 0.00 0.00 0.00 0.00 0.01 0.00 0.00 0.00 0.00 0.00 0.03 0.06 0.15 0.15 0.20 0.15 0.11 0.10 0.11 0.11 0.10 0.07 0.07 0.09 0.07
0.00 0.00 0.00 0.00 0.01 0.02 0.05 0.05 0.06 0.01 0.00 0.00 0.00 0.00 0.01 0.01 0.03 0.03 0.05 0.15 0.18 0.42 0.34 0.22 0.16 0.18 0.16 0.12 0.12 0.13 0.12 0.14
0.00 0.00 0.00 0.00 0.00 0.00 0.02 0.07 0.07 0.10 0.06 0.02 0.01 0.00 0.01 0.02 0.05 0.23 0.22 0.10 0.06 0.10 0.15 0.15 0.12 0.17 0.21 0.18 0.14 0.13 0.13 0.15
0.00 0.00 0.00 0.00 0.00 0.00 0.00 0.01 0.02 0.03 0.07 0.07 0.05 0.04 0.02 0.05 0.14 0.15 0.14 0.10 0.08 0.07 0.08 0.12 0.12 0.14 0.16 0.16 0.15 0.16 0.18 0.23
0.02 0.03 0.01 0.00 0.00 0.01 0.01 0.01 0.01 0.00 0.00 0.01 0.03 0.02 0.03 0.05 0.13 0.15 0.10 0.12 0.06 0.06 0.06 0.07 0.08 0.07 0.06 0.09 0.12 0.11 0.09 0.11
0.01 0.03 0.04 0.05 0.04 0.02 0.01 0.00 0.01 0.01 0.01 0.00 0.01 0.03 0.04 0.04 0.08 0.09 0.11 0.10 0.12 0.14 0.11 0.08 0.06 0.04 0.06 0.04 0.04 0.04 0.04 0.04
0.00 0.00 0.00 0.01 0.07 0.14 0.13 0.07 0.04 0.03 0.01 0.03 0.03 0.04 0.05 0.06 0.07 0.05 0.07 0.13 0.19 0.17 0.14 0.19 0.18 0.12 0.16 0.14 0.10 0.06 0.06 0.05
0.00 0.00 0.00 0.00 0.00 0.01 0.02 0.08 0.09 0.08 0.10 0.08 0.06 0.06 0.06 0.06 0.09 0.11 0.13 0.19 0.25 0.20 0.19 0.16 0.15 0.11 0.15 0.14 0.14 0.08 0.08 0.07
0.00 0.00 0.00 0.00 0.00 0.00 0.00 0.01 0.04 0.04 0.07 0.08 0.06 0.06 0.07 0.09 0.12 0.08 0.11 0.16 0.17 0.16 0.16 0.16 0.13 0.13 0.20 0.18 0.19 0.07 0.06 0.07

GFSFLT1_prec_precacc24_084.txt.gz
Total_Precipitation_Accumulation
0.00 0.00 0.00 0.01 0.09 0.11 0.09 0.09 0.09 0.12 0.12 0.17 0.29 0.43 0.61 0.64 0.54 0.34 0.42 0.39 0.21 0.06 0.04 0.09 0.06 0.06 0.04 0.01 0.03 0.01 0.01 0.00
0.00 0.00 0.00 0.01 0.05 0.10 0.08 0.08 0.13 0.08 0.11 0.10 0.18 0.29 0.37 0.65 0.62 0.31 0.39 0.47 0.19 0.05 0.01 0.04 0.07 0.15 0.08 0.03 0.03 0.03 0.02 0.01
0.00 0.00 0.00 0.00 0.01 0.01 0.01 0.01 0.03 0.06 0.06 0.04 0.04 0.09 0.20 0.49 0.71 0.40 0.41 0.40 0.14 0.02 0.01 0.01 0.03 0.07 0.08 0.03 0.02 0.03 0.02 0.02
0.00 0.00 0.00 0.00 0.01 0.01 0.01 0.00 0.01 0.03 0.04 0.05 0.03 0.06 0.20 0.81 1.05 0.57 0.31 0.32 0.13 0.04 0.04 0.04 0.03 0.04 0.07 0.05 0.02 0.01 0.18 0.07
0.00 0.00 0.00 0.00 0.00 0.00 0.01 0.01 0.00 0.01 0.01 0.03 0.03 0.03 0.08 0.40 0.76 0.57 0.25 0.22 0.12 0.04 0.02 0.01 0.03 0.03 0.06 0.08 0.05 0.03 0.45 0.30
0.00 0.00 0.00 0.00 0.00 0.00 0.01 0.01 0.00 0.00 0.02 0.02 0.01 0.01 0.00 0.09 0.57 0.64 0.48 0.25 0.17 0.10 0.06 0.03 0.01 0.06 0.10 0.22 0.21 0.19 0.40 0.25
0.00 0.00 0.00 0.00 0.00 0.00 0.01 0.01 0.00 0.00 0.01 0.02 0.01 0.00 0.00 0.02 0.20 0.47 0.51 0.35 0.26 0.17 0.11 0.08 0.06 0.08 0.11 0.15 0.16 0.26 0.36 0.30
0.00 0.00 0.00 0.00 0.00 0.00 0.00 0.00 0.01 0.00 0.00 0.00 0.00 0.00 0.00 0.00 0.02 0.20 0.38 0.36 0.24 0.20 0.15 0.12 0.06 0.05 0.07 0.09 0.15 0.13 0.19 0.22
0.00 0.00 0.00 0.00 0.00 0.00 0.00 0.00 0.00 0.01 0.00 0.01 0.00 0.00 0.00 0.00 0.00 0.03 0.14 0.28 0.16 0.12 0.16 0.17 0.13 0.07 0.08 0.09 0.13 0.09 0.12 0.17
0.00 0.00 0.00 0.00 0.00 0.00 0.00 0.00 0.00 0.00 0.01 0.01 0.01 0.01 0.00 0.00 0.00 0.00 0.01 0.06 0.05 0.02 0.04 0.07 0.07 0.04 0.04 0.05 0.07 0.09 0.11 0.12
0.00 0.00 0.00 0.00 0.00 0.00 0.00 0.00 0.00 0.00 0.00 0.01 0.01 0.00 0.00 0.00 0.00 0.00 0.00 0.00 0.00 0.00 0.01 0.04 0.01 0.01 0.02 0.03 0.03 0.05 0.09 0.08
0.00 0.00 0.00 0.00 0.00 0.00 0.00 0.00 0.00 0.00 0.00 0.00 0.00 0.00 0.00 0.00 0.00 0.00 0.00 0.00 0.00 0.00 0.00 0.02 0.02 0.03 0.03 0.05 0.07 0.09 0.11 0.13
0.00 0.00 0.00 0.00 0.00 0.01 0.00 0.00 0.00 0.00 0.01 0.00 0.00 0.00 0.00 0.00 0.00 0.00 0.00 0.00 0.00 0.00 0.00 0.00 0.02 0.06 0.08 0.08 0.07 0.07 0.10 0.14
0.00 0.00 0.00 0.00 0.03 0.04 0.01 0.00 0.00 0.00 0.00 0.00 0.00 0.00 0.00 0.00 0.00 0.00 0.00 0.00 0.00 0.00 0.01 0.01 0.00 0.01 0.03 0.07 0.07 0.09 0.15 0.21
0.02 0.03 0.02 0.06 0.10 0.08 0.02 0.01 0.01 0.01 0.00 0.00 0.00 0.00 0.00 0.00 0.00 0.00 0.00 0.01 0.00 0.00 0.00 0.00 0.00 0.00 0.00 0.03 0.08 0.08 0.07 0.09
0.03 0.07 0.13 0.14 0.11 0.05 0.04 0.02 0.02 0.02 0.01 0.01 0.01 0.00 0.00 0.00 0.00 0.00 0.01 0.02 0.03 0.04 0.03 0.02 0.02 0.01 0.01 0.01 0.01 0.02 0.03 0.02
0.04 0.06 0.12 0.16 0.21 0.25 0.25 0.17 0.10 0.07 0.05 0.07 0.06 0.04 0.02 0.01 0.00 0.00 0.01 0.02 0.04 0.06 0.06 0.11 0.13 0.09 0.10 0.11 0.09 0.06 0.05 0.04
0.03 0.05 0.06 0.06 0.04 0.04 0.06 0.11 0.12 0.11 0.12 0.10 0.06 0.06 0.04 0.03 0.03 0.02 0.05 0.06 0.08 0.11 0.13 0.11 0.11 0.08 0.10 0.11 0.12 0.07 0.06 0.04
0.01 0.01 0.02 0.01 0.00 0.00 0.00 0.01 0.04 0.04 0.07 0.09 0.06 0.06 0.06 0.07 0.07 0.08 0.08 0.06 0.08 0.09 0.11 0.10 0.10 0.14 0.16 0.15 0.15 0.06 0.04 0.05

GFSFLT1_prec_precacc24_087.txt.gz
Total_Precipitation_Accumulation
0.00 0.00 0.00 0.01 0.06 0.05 0.01 0.01 0.05 0.06 0.06 0.16 0.25 0.39 0.61 0.62 0.53 0.34 0.43 0.42 0.26 0.10 0.09 0.20 0.17 0.10 0.04 0.00 0.00 0.01 0.01 0.00
0.00 0.00 0.00 0.01 0.04 0.08 0.03 0.01 0.05 0.06 0.04 0.09 0.16 0.27 0.37 0.65 0.61 0.34 0.43 0.57 0.37 0.19 0.04 0.07 0.12 0.16 0.06 0.01 0.00 0.02 0.02 0.01
0.00 0.00 0.00 0.00 0.01 0.01 0.01 0.00 0.02 0.03 0.02 0.03 0.04 0.09 0.20 0.50 0.75 0.47 0.53 0.54 0.39 0.23 0.06 0.02 0.03 0.06 0.06 0.02 0.01 0.02 0.01 0.01
0.00 0.00 0.00 0.00 0.01 0.01 0.01 0.00 0.00 0.01 0.01 0.02 0.02 0.07 0.20 0.84 1.18 0.81 0.55 0.54 0.36 0.17 0.07 0.04 0.00 0.01 0.02 0.03 0.01 0.01 0.17 0.07
0.00 0.00 0.00 0.00 0.00 0.00 0.01 0.01 0.00 0.01 0.01 0.01 0.02 0.04 0.09 0.44 0.96 0.83 0.50 0.44 0.36 0.13 0.07 0.03 0.00 0.01 0.03 0.06 0.04 0.03 0.45 0.30
0.00 0.00 0.00 0.00 0.00 0.00 0.01 0.01 0.00 0.00 0.02 0.02 0.01 0.01 0.01 0.10 0.80 1.03 0.75 0.45 0.31 0.14 0.09 0.04 0.02 0.06 0.10 0.22 0.21 0.19 0.40 0.25
0.00 0.00 0.00 0.00 0.00 0.00 0.01 0.01 0.00 0.00 0.01 0.02 0.01 0.00 0.00 0.03 0.34 0.74 0.88 0.57 0.42 0.22 0.14 0.08 0.07 0.08 0.11 0.15 0.16 0.25 0.33 0.25
0.00 0.00 0.00 0.00 0.00 0.00 0.00 0.01 0.01 0.01 0.01 0.01 0.00 0.00 0.00 0.00 0.05 0.32 0.61 0.57 0.40 0.28 0.20 0.14 0.07 0.06 0.07 0.09 0.15 0.13 0.17 0.16
0.00 0.00 0.00 0.00 0.00 0.00 0.00 0.00 0.00 0.01 0.01 0.01 0.00 0.00 0.00 0.00 0.00 0.13 0.40 0.48 0.37 0.26 0.29 0.27 0.22 0.13 0.10 0.10 0.13 0.08 0.10 0.12
0.00 0.00 0.00 0.00 0.00 0.00 0.00 0.00 0.00 0.01 0.01 0.01 0.01 0.01 0.00 0.00 0.00 0.01 0.15 0.29 0.36 0.31 0.21 0.22 0.22 0.16 0.09 0.06 0.07 0.08 0.09 0.09
0.00 0.00 0.00 0.00 0.00 0.00 0.00 0.00 0.00 0.00 0.01 0.01 0.01 0.01 0.01 0.00 0.00 0.00 0.01 0.08 0.15 0.18 0.09 0.10 0.09 0.07 0.04 0.03 0.02 0.04 0.07 0.07
0.00 0.00 0.00 0.00 0.00 0.01 0.01 0.00 0.00 0.00 0.00 0.00 0.00 0.00 0.01 0.00 0.00 0.00 0.00 0.01 0.03 0.08 0.12 0.13 0.11 0.05 0.02 0.02 0.01 0.01 0.04 0.06
0.00 0.00 0.00 0.00 0.01 0.02 0.02 0.01 0.00 0.00 0.00 0.00 0.00 0.00 0.00 0.00 0.00 0.00 0.00 0.00 0.00 0.00 0.03 0.05 0.07 0.11 0.04 0.03 0.02 0.03 0.05 0.07
0.00 0.00 0.00 0.02 0.04 0.05 0.02 0.00 0.00 0.00 0.00 0.00 0.00 0.00 0.00 0.00 0.00 0.00 0.00 0.00 0.00 0.00 0.00 0.00 0.00 0.01 0.03 0.03 0.02 0.02 0.04 0.07
0.04 0.05 0.04 0.07 0.12 0.11 0.05 0.02 0.01 0.01 0.00 0.00 0.00 0.00 0.00 0.00 0.00 0.00 0.00 0.00 0.00 0.00 0.00 0.00 0.00 0.00 0.00 0.00 0.00 0.01 0.03 0.06
0.08 0.12 0.16 0.16 0.13 0.07 0.05 0.02 0.02 0.02 0.01 0.01 0.01 0.00 0.00 0.00 0.00 0.00 0.00 0.00 0.00 0.00 0.00 0.00 0.00 0.00 0.00 0.00 0.00 0.00 0.01 0.01
0.08 0.12 0.15 0.19 0.28 0.31 0.29 0.18 0.10 0.07 0.05 0.07 0.06 0.04 0.02 0.01 0.00 0.00 0.00 0.00 0.00 0.00 0.00 0.01 0.02 0.03 0.04 0.04 0.04 0.03 0.02 0.02
0.06 0.10 0.10 0.11 0.11 0.06 0.09 0.13 0.13 0.12 0.13 0.11 0.07 0.07 0.04 0.04 0.04 0.03 0.04 0.03 0.02 0.01 0.02 0.02 0.02 0.03 0.04 0.05 0.07 0.05 0.04 0.03
0.05 0.04 0.04 0.04 0.04 0.02 0.02 0.04 0.05 0.05 0.08 0.10 0.07 0.08 0.07 0.08 0.08 0.09 0.10 0.06 0.08 0.07 0.07 0.05 0.05 0.11 0.11 0.11 0.12 0.06 0.03 0.04

GFSFLT1_prec_precacc24_093.txt.gz
Total_Precipitation_Accumulation
0.00 0.00 0.00 0.00 0.01 0.00 0.00 0.00 0.00 0.00 0.02 0.10 0.21 0.34 0.47 0.49 0.45 0.34 0.46 0.47 0.31 0.18 0.24 0.44 0.31 0.30 0.19 0.10 0.17 0.19 0.10 0.01
0.00 0.00 0.00 0.00 0.01 0.01 0.00 0.00 0.00 0.01 0.03 0.06 0.16 0.25 0.33 0.59 0.58 0.34 0.45 0.61 0.43 0.26 0.12 0.25 0.37 0.34 0.26 0.08 0.08 0.12 0.14 0.02
0.00 0.00 0.00 0.00 0.00 0.01 0.00 0.00 0.00 0.00 0.01 0.01 0.04 0.08 0.18 0.48 0.74 0.47 0.53 0.58 0.49 0.43 0.16 0.11 0.24 0.31 0.33 0.18 0.09 0.10 0.10 0.04
0.00 0.00 0.00 0.00 0.00 0.00 0.00 0.00 0.00 0.00 0.01 0.01 0.02 0.06 0.19 0.83 1.18 0.84 0.61 0.60 0.48 0.45 0.30 0.20 0.14 0.28 0.28 0.16 0.07 0.07 0.09 0.06
0.00 0.00 0.00 0.00 0.00 0.00 0.01 0.01 0.00 0.00 0.00 0.00 0.01 0.04 0.09 0.45 0.97 0.88 0.65 0.77 0.63 0.36 0.39 0.35 0.19 0.15 0.27 0.20 0.10 0.08 0.19 0.12
0.00 0.00 0.00 0.00 0.00 0.00 0.00 0.00 0.00 0.00 0.01 0.00 0.00 0.01 0.01 0.11 0.82 1.12 0.89 0.79 0.79 0.53 0.42 0.39 0.25 0.14 0.15 0.20 0.16 0.16 0.27 0.09
0.00 0.00 0.00 0.00 0.00 0.00 0.00 0.00 0.00 0.00 0.01 0.01 0.00 0.00 0.01 0.04 0.36 0.81 1.07 0.83 0.76 0.65 0.55 0.46 0.28 0.16 0.10 0.13 0.14 0.16 0.21 0.14
0.00 0.00 0.00 0.00 0.00 0.00 0.00 0.01 0.00 0.00 0.01 0.01 0.00 0.00 0.01 0.01 0.06 0.34 0.69 0.77 0.60 0.54 0.56 0.50 0.41 0.22 0.12 0.12 0.15 0.13 0.13 0.11
0.00 0.00 0.00 0.00 0.00 0.01 0.00 0.00 0.00 0.01 0.00 0.01 0.01 0.00 0.01 0.02 0.02 0.18 0.55 0.63 0.55 0.42 0.58 0.56 0.50 0.36 0.22 0.14 0.14 0.09 0.07 0.09
0.00 0.00 0.00 0.00 0.00 0.01 0.01 0.00 0.00 0.01 0.01 0.01 0.01 0.01 0.01 0.01 0.00 0.03 0.31 0.51 0.55 0.50 0.55 0.52 0.49 0.47 0.28 0.11 0.07 0.07 0.07 0.07
0.00 0.00 0.00 0.00 0.00 0.00 0.01 0.00 0.00 0.00 0.01 0.01 0.01 0.01 0.01 0.01 0.01 0.01 0.09 0.30 0.43 0.42 0.50 0.43 0.40 0.36 0.28 0.13 0.04 0.05 0.05 0.05
0.00 0.00 0.00 0.00 0.00 0.01 0.02 0.00 0.00 0.00 0.00 0.00 0.00 0.01 0.01 0.00 0.01 0.00 0.02 0.11 0.34 0.27 0.43 0.45 0.31 0.24 0.18 0.14 0.05 0.03 0.04 0.04
0.00 0.00 0.00 0.00 0.01 0.02 0.03 0.02 0.01 0.01 0.00 0.00 0.00 0.00 0.00 0.00 0.00 0.00 0.00 0.02 0.13 0.11 0.21 0.33 0.25 0.25 0.17 0.09 0.06 0.04 0.04 0.04
0.01 0.02 0.03 0.03 0.05 0.06 0.04 0.03 0.03 0.01 0.00 0.00 0.00 0.00 0.00 0.00 0.00 0.01 0.01 0.01 0.03 0.04 0.08 0.09 0.09 0.10 0.18 0.16 0.10 0.05 0.03 0.02
0.06 0.08 0.07 0.11 0.15 0.14 0.09 0.05 0.06 0.02 0.00 0.00 0.00 0.00 0.01 0.01 0.01 0.01 0.01 0.01 0.01 0.02 0.02 0.03 0.05 0.09 0.05 0.08 0.10 0.06 0.02 0.01
0.11 0.17 0.21 0.21 0.19 0.13 0.09 0.05 0.07 0.03 0.02 0.01 0.02 0.01 0.01 0.01 0.01 0.00 0.01 0.01 0.01 0.02 0.02 0.02 0.02 0.03 0.03 0.02 0.01 0.01 0.01 0.00
0.11 0.17 0.21 0.26 0.35 0.44 0.43 0.25 0.15 0.08 0.06 0.08 0.07 0.06 0.04 0.03 0.02 0.02 0.01 0.00 0.00 0.01 0.01 0.02 0.03 0.01 0.03 0.01 0.01 0.01 0.01 0.01
0.11 0.15 0.17 0.19 0.22 0.17 0.18 0.19 0.16 0.14 0.15 0.12 0.08 0.07 0.05 0.05 0.06 0.05 0.06 0.05 0.03 0.01 0.01 0.01 0.01 0.01 0.03 0.01 0.01 0.02 0.04 0.02
0.14 0.11 0.15 0.15 0.14 0.13 0.09 0.07 0.08 0.08 0.09 0.11 0.09 0.09 0.08 0.09 0.10 0.11 0.12 0.08 0.09 0.08 0.08 0.06 0.05 0.10 0.07 0.02 0.01 0.01 0.02 0.02

GFSFLT1_prec_precacc24_096.txt.gz
Total_Precipitation_Accumulation
0.00 0.00 0.00 0.00 0.00 0.00 0.00 0.00 0.00 0.00 0.01 0.07 0.18 0.29 0.38 0.41 0.41 0.31 0.41 0.44 0.30 0.17 0.24 0.47 0.34 0.33 0.26 0.16 0.23 0.35 0.24 0.18
0.00 0.00 0.00 0.00 0.00 0.00 0.00 0.00 0.01 0.00 0.02 0.05 0.15 0.23 0.28 0.53 0.55 0.33 0.43 0.57 0.42 0.26 0.14 0.31 0.60 0.49 0.31 0.14 0.17 0.29 0.33 0.15
0.00 0.00 0.00 0.00 0.00 0.00 0.00 0.00 0.00 0.00 0.01 0.01 0.04 0.08 0.18 0.47 0.73 0.47 0.53 0.58 0.50 0.43 0.16 0.12 0.30 0.56 0.62 0.29 0.16 0.22 0.25 0.18
0.00 0.00 0.00 0.00 0.00 0.00 0.00 0.00 0.00 0.00 0.01 0.01 0.02 0.06 0.17 0.82 1.18 0.84 0.62 0.60 0.48 0.46 0.31 0.21 0.15 0.31 0.41 0.28 0.15 0.12 0.13 0.15
0.00 0.00 0.00 0.00 0.00 0.00 0.00 0.00 0.00 0.01 0.00 0.00 0.01 0.03 0.08 0.45 0.97 0.88 0.65 0.76 0.63 0.37 0.40 0.36 0.20 0.16 0.32 0.27 0.16 0.13 0.12 0.09
0.00 0.00 0.00 0.00 0.00 0.00 0.00 0.00 0.00 0.00 0.01 0.00 0.00 0.01 0.01 0.11 0.82 1.13 0.90 0.79 0.79 0.54 0.42 0.40 0.28 0.18 0.16 0.28 0.23 0.18 0.16 0.09
0.00 0.00 0.00 0.00 0.00 0.00 0.00 0.00 0.00 0.00 0.01 0.01 0.00 0.00 0.01 0.04 0.36 0.81 1.08 0.83 0.76 0.66 0.60 0.53 0.32 0.19 0.14 0.19 0.21 0.18 0.17 0.12
0.00 0.00 0.00 0.00 0.00 0.00 0.00 0.00 0.00 0.00 0.00 0.00 0.00 0.01 0.01 0.01 0.06 0.35 0.70 0.78 0.61 0.55 0.60 0.62 0.53 0.28 0.16 0.17 0.21 0.24 0.21 0.14
0.00 0.00 0.00 0.00 0.00 0.01 0.00 0.00 0.00 0.00 0.00 0.01 0.01 0.02 0.01 0.02 0.02 0.19 0.55 0.63 0.55 0.43 0.62 0.68 0.62 0.47 0.33 0.21 0.25 0.19 0.18 0.16
0.00 0.00 0.00 0.00 0.00 0.01 0.01 0.00 0.00 0.01 0.01 0.01 0.01 0.01 0.01 0.01 0.01 0.03 0.31 0.51 0.55 0.51 0.63 0.67 0.70 0.60 0.39 0.25 0.18 0.18 0.17 0.16
0.00 0.00 0.00 0.02 0.00 0.01 0.01 0.00 0.00 0.01 0.02 0.02 0.02 0.01 0.01 0.01 0.01 0.01 0.09 0.30 0.44 0.45 0.59 0.60 0.59 0.54 0.43 0.27 0.15 0.13 0.13 0.14
0.00 0.00 0.00 0.01 0.01 0.02 0.02 0.00 0.02 0.03 0.02 0.01 0.01 0.00 0.01 0.01 0.01 0.01 0.02 0.11 0.35 0.31 0.47 0.58 0.52 0.47 0.40 0.38 0.18 0.10 0.09 0.09
0.00 0.01 0.00 0.01 0.03 0.02 0.03 0.02 0.03 0.03 0.01 0.01 0.01 0.00 0.01 0.01 0.00 0.01 0.00 0.02 0.14 0.16 0.27 0.45 0.43 0.51 0.45 0.38 0.31 0.13 0.08 0.07
0.01 0.03 0.04 0.04 0.06 0.06 0.04 0.04 0.05 0.03 0.02 0.03 0.01 0.01 0.01 0.01 0.01 0.01 0.01 0.01 0.03 0.05 0.14 0.20 0.24 0.30 0.44 0.42 0.31 0.19 0.11 0.09
0.06 0.09 0.09 0.13 0.17 0.15 0.10 0.07 0.09 0.08 0.04 0.03 0.01 0.01 0.01 0.01 0.01 0.01 0.01 0.01 0.01 0.03 0.04 0.09 0.14 0.19 0.19 0.23 0.25 0.20 0.12 0.06
0.11 0.17 0.23 0.24 0.21 0.16 0.12 0.07 0.11 0.12 0.07 0.03 0.02 0.02 0.02 0.03 0.02 0.02 0.02 0.02 0.01 0.02 0.03 0.03 0.06 0.09 0.12 0.06 0.06 0.09 0.12 0.09
0.11 0.17 0.22 0.29 0.38 0.47 0.46 0.31 0.20 0.13 0.08 0.09 0.07 0.07 0.06 0.05 0.03 0.02 0.02 0.02 0.02 0.02 0.03 0.04 0.06 0.04 0.08 0.03 0.06 0.07 0.08 0.11
0.11 0.15 0.18 0.22 0.26 0.21 0.22 0.26 0.23 0.17 0.16 0.13 0.09 0.09 0.06 0.05 0.06 0.05 0.07 0.06 0.04 0.02 0.03 0.02 0.02 0.02 0.05 0.03 0.06 0.06 0.07 0.05
0.14 0.12 0.15 0.18 0.20 0.19 0.16 0.14 0.15 0.11 0.10 0.12 0.10 0.10 0.09 0.10 0.11 0.13 0.13 0.09 0.10 0.09 0.10 0.09 0.08 0.15 0.13 0.06 0.06 0.03 0.05 0.06

GFSFLT1_prec_precacc24_099.txt.gz
Total_Precipitation_Accumulation
0.00 0.00 0.00 0.00 0.00 0.00 0.00 0.00 0.00 0.01 0.01 0.04 0.11 0.22 0.25 0.34 0.36 0.29 0.40 0.44 0.30 0.17 0.23 0.39 0.29 0.31 0.24 0.19 0.31 0.43 0.33 0.36
0.00 0.00 0.00 0.00 0.00 0.00 0.00 0.00 0.01 0.01 0.02 0.05 0.13 0.20 0.23 0.48 0.52 0.31 0.43 0.57 0.42 0.25 0.14 0.27 0.53 0.37 0.27 0.17 0.26 0.44 0.49 0.28
0.00 0.00 0.00 0.00 0.00 0.00 0.00 0.00 0.00 0.00 0.01 0.01 0.04 0.08 0.18 0.48 0.74 0.47 0.53 0.58 0.50 0.43 0.16 0.12 0.28 0.52 0.61 0.33 0.24 0.39 0.44 0.32
0.00 0.00 0.00 0.00 0.00 0.00 0.00 0.00 0.00 0.01 0.00 0.01 0.02 0.06 0.17 0.82 1.19 0.86 0.62 0.61 0.49 0.46 0.31 0.21 0.15 0.31 0.55 0.49 0.25 0.19 0.29 0.31
0.00 0.00 0.00 0.00 0.00 0.00 0.00 0.00 0.00 0.01 0.00 0.00 0.01 0.03 0.08 0.44 0.97 0.89 0.66 0.77 0.64 0.38 0.41 0.38 0.22 0.16 0.33 0.35 0.25 0.21 0.21 0.22
0.00 0.00 0.00 0.00 0.00 0.00 0.00 0.00 0.00 0.00 0.00 0.00 0.00 0.01 0.01 0.11 0.83 1.13 0.90 0.80 0.79 0.55 0.42 0.41 0.30 0.19 0.18 0.29 0.25 0.22 0.22 0.14
0.00 0.00 0.00 0.00 0.00 0.00 0.00 0.00 0.00 0.00 0.00 0.00 0.00 0.00 0.01 0.04 0.36 0.81 1.08 0.83 0.76 0.67 0.61 0.54 0.33 0.20 0.15 0.20 0.24 0.22 0.15 0.15
0.00 0.00 0.00 0.00 0.00 0.00 0.00 0.00 0.00 0.00 0.00 0.00 0.00 0.01 0.03 0.01 0.06 0.35 0.70 0.78 0.61 0.55 0.61 0.63 0.54 0.29 0.17 0.20 0.27 0.26 0.21 0.17
0.00 0.00 0.00 0.00 0.00 0.01 0.00 0.00 0.00 0.01 0.00 0.02 0.02 0.03 0.03 0.02 0.02 0.19 0.55 0.63 0.55 0.43 0.62 0.69 0.64 0.49 0.40 0.29 0.30 0.27 0.24 0.20
0.00 0.00 0.00 0.00 0.01 0.01 0.01 0.00 0.01 0.04 0.03 0.02 0.02 0.03 0.03 0.04 0.02 0.03 0.31 0.51 0.56 0.52 0.63 0.68 0.72 0.66 0.52 0.45 0.34 0.27 0.24 0.26
0.00 0.00 0.00 0.03 0.03 0.06 0.06 0.03 0.02 0.03 0.05 0.04 0.03 0.05 0.03 0.03 0.02 0.01 0.09 0.30 0.44 0.45 0.59 0.60 0.66 0.71 0.64 0.49 0.38 0.28 0.23 0.23
0.00 0.01 0.04 0.06 0.05 0.05 0.04 0.02 0.04 0.06 0.06 0.03 0.04 0.05 0.03 0.04 0.03 0.01 0.02 0.11 0.35 0.31 0.47 0.59 0.62 0.62 0.66 0.62 0.35 0.20 0.21 0.25
0.00 0.01 0.03 0.06 0.07 0.03 0.03 0.02 0.03 0.06 0.10 0.06 0.06 0.07 0.03 0.02 0.01 0.01 0.00 0.02 0.14 0.16 0.27 0.46 0.50 0.65 0.58 0.59 0.49 0.23 0.18 0.21
0.01 0.03 0.05 0.06 0.08 0.07 0.04 0.05 0.09 0.08 0.08 0.07 0.06 0.08 0.03 0.02 0.01 0.01 0.01 0.01 0.03 0.05 0.14 0.21 0.27 0.41 0.62 0.61 0.50 0.36 0.23 0.19
0.06 0.08 0.10 0.14 0.19 0.17 0.11 0.10 0.16 0.16 0.11 0.09 0.06 0.08 0.05 0.01 0.02 0.01 0.01 0.01 0.01 0.03 0.04 0.11 0.19 0.27 0.40 0.53 0.52 0.44 0.29 0.23
0.11 0.16 0.22 0.24 0.22 0.16 0.14 0.11 0.19 0.18 0.12 0.07 0.08 0.04 0.03 0.03 0.03 0.02 0.02 0.02 0.01 0.02 0.03 0.04 0.11 0.17 0.26 0.27 0.29 0.35 0.29 0.23
0.11 0.17 0.22 0.30 0.38 0.43 0.42 0.31 0.26 0.18 0.12 0.13 0.10 0.08 0.08 0.07 0.05 0.03 0.03 0.03 0.02 0.03 0.06 0.07 0.08 0.07 0.18 0.10 0.16 0.25 0.23 0.23
0.11 0.16 0.18 0.22 0.26 0.22 0.24 0.22 0.19 0.19 0.19 0.15 0.10 0.10 0.09 0.08 0.08 0.07 0.08 0.11 0.06 0.05 0.06 0.06 0.04 0.03 0.11 0.08 0.15 0.19 0.26 0.23
0.15 0.12 0.16 0.18 0.20 0.20 0.18 0.16 0.16 0.15 0.14 0.11 0.08 0.09 0.10 0.11 0.13 0.15 0.15 0.13 0.13 0.14 0.16 0.14 0.13 0.20 0.16 0.11 0.16 0.09 0.16 0.15